Location: Nairn
(57.5833°N, 3.8667°W)
Time: 18:51:28
(UTC+00:00)

Cosmos 2084 Rocket - Pass Details

Date: 07 August 2020
Orbit: 549 x 632 km, 62.8° (Epoch: 23 September)

Event Time Altitude Azimuth Distance (km) Brightness Sun altitude
Exits shadow 00:57:27 21° 232° (SW) 1,335 4.9 -15.7°
Maximum altitude 01:00:18 83° 146° (SE) 594 3.3 -15.6°
Drops below altitude 10° 01:04:41 10° 58° (ENE) 1,937 6.7 -15.5°
Sets 01:06:58 0° 58° (ENE) 2,856 7.6 -15.5°
